START_TIME,STEP,MOV.,M29,t_acc.,H22,t_acc.,H26,t_acc.,H30,t_acc.
1979-03-01 15:00:21.360 ,2,1,0.,24.0,0.,24.0,0.,24.0,0.,24.0
1979-03-01 15:00:45.360 ,1,1,0.,24.0,0.,24.0,0.,24.0,0.,24.0
1979-03-01 15:01:09.360 ,0,1,1.,24.0,0.,24.0,0.,24.0,0.,24.0
1979-03-01 15:01:33.360 ,0,1,0.,24.0,0.,24.0,0.,24.0,0.,24.0
1979-03-01 15:01:57.360 ,1,1,0.,24.0,0.,24.0,0.,24.0,0.,24.0
1979-03-01 15:02:21.360 ,2,1,0.,24.0,0.,24.0,0.,24.0,0.,24.0
1979-03-01 15:02:45.360 ,0,0,0.,24.0,0.,24.0,0.,24.0,0.,24.0
1979-03-01 15:03:04.560 ,3,0,,0,,0,,0,,0
1979-03-01 15:03:09.360 ,4,1,0.,24.0,0.,24.0,0.,24.0,0.,24.0
1979-03-01 15:03:33.360 ,5,1,0.,24.0,0.,24.0,0.,24.0,0.,24.0
1979-03-01 15:03:57.360 ,6,1,1.,24.0,0.,24.0,0.,24.0,0.,24.0
1979-03-01 15:04:21.360 ,7,1,0.,24.0,0.,24.0,0.,24.0,0.,24.0
1979-03-01 15:04:45.360 ,7,1,0.,24.0,0.,24.0,0.,24.0,0.,24.0
1979-03-01 15:05:09.360 ,6,1,0.,24.0,0.,24.0,0.,24.0,0.,24.0
1979-03-01 15:05:33.360 ,5,1,0.,24.0,0.,24.0,0.,24.0,0.,24.0
1979-03-01 15:05:57.360 ,4,1,0.,24.0,0.,24.0,0.,24.0,0.,24.0
1979-03-01 15:06:21.360 ,3,1,0.,24.0,0.,24.0,0.,24.0,0.,24.0
1979-03-01 15:06:45.360 ,2,1,0.,24.0,0.,24.0,0.,24.0,0.,24.0
1979-03-01 15:07:09.360 ,1,1,0.,24.0,0.,24.0,0.,24.0,0.,24.0
1979-03-01 15:07:33.360 ,0,1,0.,24.0,0.,24.0,0.,24.0,0.,24.0
1979-03-01 15:07:57.360 ,0,1,0.,24.0,0.,24.0,0.,24.0,0.,24.0
1979-03-01 15:08:21.360 ,1,1,1.,24.0,0.,24.0,0.,24.0,0.,24.0
1979-03-01 15:08:45.360 ,2,1,0.,24.0,0.,24.0,0.,24.0,0.,24.0
1979-03-01 15:09:09.360 ,3,1,0.,24.0,0.,24.0,0.,24.0,0.,24.0
1979-03-01 15:09:33.360 ,4,1,0.,24.0,0.,24.0,0.,24.0,0.,24.0
1979-03-01 15:09:57.360 ,5,1,0.,24.0,0.,24.0,0.,24.0,0.,24.0
1979-03-01 15:10:21.360 ,6,1,0.,24.0,0.,24.0,0.,24.0,0.,24.0
1979-03-01 15:10:45.360 ,7,1,0.,24.0,0.,24.0,0.,24.0,0.,24.0
1979-03-01 15:11:09.360 ,7,1,0.,24.0,0.,24.0,0.,24.0,0.,24.0
1979-03-01 15:11:33.360 ,6,1,0.,24.0,0.,24.0,0.,24.0,0.,24.0
1979-03-01 15:11:57.360 ,5,1,0.,24.0,0.,24.0,0.,24.0,0.,24.0
1979-03-01 15:12:21.360 ,4,1,0.,24.0,0.,24.0,0.,24.0,0.,24.0
1979-03-01 15:12:45.360 ,3,1,0.,24.0,0.,24.0,0.,24.0,0.,24.0
1979-03-01 15:13:09.360 ,2,1,0.,24.0,0.,24.0,0.,24.0,0.,24.0
1979-03-01 15:13:33.360 ,1,1,0.,24.0,0.,24.0,0.,24.0,0.,24.0
1979-03-01 15:13:57.360 ,0,1,0.,24.0,0.,24.0,0.,24.0,0.,24.0
1979-03-01 15:14:21.360 ,0,1,0.,24.0,0.,24.0,0.,24.0,0.,24.0
1979-03-01 15:14:45.360 ,1,1,0.,24.0,0.,24.0,0.,24.0,0.,24.0
1979-03-01 15:15:09.360 ,2,1,0.,24.0,0.,24.0,0.,24.0,0.,24.0
1979-03-01 15:15:33.360 ,3,1,0.,24.0,0.,24.0,0.,24.0,0.,24.0
1979-03-01 15:15:57.360 ,4,1,0.,24.0,0.,24.0,0.,24.0,0.,24.0
1979-03-01 15:16:21.360 ,5,1,0.,24.0,0.,24.0,0.,24.0,0.,24.0
1979-03-01 15:16:45.360 ,6,1,0.,24.0,0.,24.0,0.,24.0,0.,24.0
1979-03-01 15:17:09.360 ,7,1,0.,24.0,0.,24.0,0.,24.0,0.,24.0
1979-03-01 15:17:33.360 ,7,1,0.,24.0,0.,24.0,0.,24.0,0.,24.0
1979-03-01 15:17:57.360 ,6,1,0.,24.0,0.,24.0,0.,24.0,0.,24.0
1979-03-01 15:18:21.360 ,5,1,0.,24.0,0.,24.0,0.,24.0,0.,24.0
1979-03-01 15:18:45.360 ,4,1,0.,24.0,0.,24.0,0.,24.0,0.,24.0
1979-03-01 15:19:09.360 ,3,1,0.,24.0,0.,24.0,0.,24.0,0.,24.0
1979-03-01 15:19:33.360 ,2,1,0.,24.0,0.,24.0,0.,24.0,0.,24.0
1979-03-01 15:19:57.360 ,1,1,0.,24.0,0.,24.0,0.,24.0,0.,24.0
1979-03-01 15:20:21.360 ,0,1,0.,24.0,0.,24.0,0.,24.0,0.,24.0
1979-03-01 15:20:45.360 ,0,1,0.,24.0,0.,24.0,0.,24.0,0.,24.0
1979-03-01 15:21:09.360 ,1,1,0.,24.0,0.,24.0,0.,24.0,0.,24.0
1979-03-01 15:21:33.360 ,2,1,0.,24.0,0.,24.0,0.,24.0,0.,24.0
1979-03-01 15:21:57.360 ,3,1,0.,24.0,0.,24.0,0.,24.0,0.,24.0
1979-03-01 15:22:21.360 ,4,1,0.,24.0,0.,24.0,0.,24.0,0.,24.0
1979-03-01 15:22:45.360 ,5,1,0.,24.0,0.,24.0,0.,24.0,0.,24.0
1979-03-01 15:23:09.360 ,6,1,0.,24.0,0.,24.0,0.,24.0,0.,24.0
1979-03-01 15:23:33.360 ,7,1,0.,24.0,0.,24.0,0.,24.0,0.,24.0
1979-03-01 15:23:57.360 ,7,1,0.,24.0,0.,24.0,0.,24.0,0.,24.0
1979-03-01 15:24:21.360 ,6,1,0.,24.0,0.,24.0,0.,24.0,0.,24.0
1979-03-01 15:24:45.360 ,5,1,0.,24.0,0.,24.0,0.,24.0,0.,24.0
1979-03-01 15:25:09.360 ,4,1,0.,24.0,0.,24.0,0.,24.0,0.,24.0
1979-03-01 15:25:33.360 ,3,1,0.,24.0,0.,24.0,0.,24.0,0.,24.0
1979-03-01 15:25:57.360 ,2,1,1.,24.0,0.,24.0,0.,24.0,0.,24.0
1979-03-01 15:26:21.360 ,1,1,0.,24.0,0.,24.0,0.,24.0,0.,24.0
1979-03-01 15:26:45.360 ,0,1,0.,24.0,0.,24.0,0.,24.0,0.,24.0
1979-03-01 15:27:09.360 ,0,1,0.,24.0,0.,24.0,0.,24.0,0.,24.0
1979-03-01 15:27:33.360 ,1,1,0.,24.0,0.,24.0,0.,24.0,0.,24.0
1979-03-01 15:27:57.360 ,2,1,0.,24.0,0.,24.0,0.,24.0,0.,24.0
1979-03-01 15:28:21.360 ,3,1,0.,24.0,0.,24.0,0.,24.0,0.,24.0
1979-03-01 15:28:45.360 ,4,1,0.,24.0,0.,24.0,0.,24.0,0.,24.0
1979-03-01 15:29:09.360 ,5,1,0.,24.0,0.,24.0,0.,24.0,0.,24.0
1979-03-01 15:29:33.360 ,6,1,0.,24.0,0.,24.0,0.,24.0,0.,24.0
1979-03-01 15:29:57.360 ,7,1,0.,24.0,0.,24.0,0.,24.0,0.,24.0
1979-03-01 15:30:21.360 ,7,1,0.,24.0,0.,24.0,0.,24.0,0.,24.0
1979-03-01 15:30:45.360 ,6,1,0.,24.0,0.,24.0,0.,24.0,0.,24.0
1979-03-01 15:31:09.360 ,0,0,,0,,0,,0,,0
1979-03-01 15:31:33.360 ,0,0,,0,,0,,0,,0
1979-03-01 15:31:59.160 ,0,0,0.,24.0,0.,24.0,0.,24.0,0.,24.0
1979-03-01 15:32:21.360 ,2,1,0.,24.0,0.,24.0,0.,24.0,0.,24.0
1979-03-01 15:32:45.360 ,1,1,0.,24.0,0.,24.0,0.,24.0,0.,24.0
1979-03-01 15:33:09.360 ,0,1,0.,24.0,0.,24.0,0.,24.0,0.,24.0
1979-03-01 15:33:33.360 ,0,1,0.,24.0,0.,24.0,0.,24.0,0.,24.0
1979-03-01 15:33:57.360 ,1,1,0.,24.0,0.,24.0,0.,24.0,0.,24.0
1979-03-01 15:34:21.360 ,2,1,1.,24.0,0.,24.0,0.,24.0,0.,24.0
1979-03-01 15:34:45.360 ,3,1,0.,24.0,0.,24.0,0.,24.0,0.,24.0
1979-03-01 15:35:09.360 ,4,1,0.,24.0,0.,24.0,0.,24.0,0.,24.0
1979-03-01 15:35:33.360 ,5,1,0.,24.0,0.,24.0,0.,24.0,0.,24.0
1979-03-01 15:35:57.360 ,6,1,0.,24.0,0.,24.0,0.,24.0,0.,24.0
1979-03-01 15:36:21.360 ,7,1,0.,24.0,0.,24.0,0.,24.0,0.,24.0
1979-03-01 15:36:45.360 ,7,1,0.,24.0,0.,24.0,0.,24.0,0.,24.0
1979-03-01 15:37:09.360 ,6,1,0.,24.0,0.,24.0,0.,24.0,0.,24.0
1979-03-01 15:37:33.360 ,5,1,0.,24.0,0.,24.0,0.,24.0,0.,24.0
1979-03-01 15:37:57.360 ,4,1,0.,24.0,0.,24.0,0.,24.0,0.,24.0
1979-03-01 15:38:21.360 ,3,1,0.,24.0,0.,24.0,0.,24.0,0.,24.0
1979-03-01 15:38:45.360 ,2,1,0.,24.0,0.,24.0,0.,24.0,0.,24.0
1979-03-01 15:39:09.360 ,1,1,0.,24.0,0.,24.0,0.,24.0,0.,24.0
1979-03-01 15:39:33.360 ,0,1,0.,24.0,0.,24.0,0.,24.0,0.,24.0
1979-03-01 15:39:57.360 ,0,1,0.,24.0,0.,24.0,0.,24.0,0.,24.0
1979-03-01 15:40:21.360 ,1,1,0.,24.0,0.,24.0,0.,24.0,0.,24.0
1979-03-01 15:40:45.360 ,2,1,0.,24.0,0.,24.0,0.,24.0,0.,24.0
1979-03-01 15:41:09.360 ,3,1,0.,24.0,0.,24.0,0.,24.0,0.,24.0
1979-03-01 15:41:33.360 ,4,1,0.,24.0,0.,24.0,0.,24.0,0.,24.0
1979-03-01 15:41:57.360 ,5,1,0.,24.0,0.,24.0,0.,24.0,0.,24.0
1979-03-01 15:42:21.360 ,6,1,1.,24.0,0.,24.0,0.,24.0,0.,24.0
1979-03-01 15:42:45.360 ,7,1,0.,24.0,0.,24.0,0.,24.0,0.,24.0
1979-03-01 15:43:09.360 ,7,1,0.,24.0,0.,24.0,0.,24.0,0.,24.0
1979-03-01 15:43:33.360 ,6,1,0.,24.0,0.,24.0,0.,24.0,0.,24.0
1979-03-01 15:43:57.360 ,5,1,0.,24.0,0.,24.0,0.,24.0,0.,24.0
1979-03-01 15:44:21.360 ,4,1,0.,24.0,0.,24.0,0.,24.0,0.,24.0
1979-03-01 15:44:45.360 ,3,1,0.,24.0,0.,24.0,0.,24.0,0.,24.0
1979-03-01 15:45:09.360 ,2,1,0.,24.0,0.,24.0,0.,24.0,0.,24.0
1979-03-01 15:45:33.360 ,1,1,0.,24.0,0.,24.0,0.,24.0,0.,24.0
1979-03-01 15:45:57.360 ,0,1,0.,24.0,0.,24.0,0.,24.0,0.,24.0
1979-03-01 15:46:21.360 ,0,1,0.,24.0,0.,24.0,0.,24.0,0.,24.0
1979-03-01 15:46:45.360 ,1,1,0.,24.0,0.,24.0,0.,24.0,0.,24.0
1979-03-01 15:47:09.360 ,2,1,0.,24.0,0.,24.0,0.,24.0,0.,24.0
1979-03-01 15:47:33.360 ,3,1,0.,24.0,0.,24.0,0.,24.0,0.,24.0
1979-03-01 15:47:57.360 ,4,1,0.,24.0,0.,24.0,0.,24.0,0.,24.0
1979-03-01 15:48:21.360 ,5,1,0.,24.0,0.,24.0,0.,24.0,0.,24.0
1979-03-01 15:48:45.360 ,6,1,0.,24.0,0.,24.0,0.,24.0,0.,24.0
1979-03-01 15:49:09.360 ,7,1,0.,24.0,0.,24.0,0.,24.0,0.,24.0
1979-03-01 15:49:33.360 ,7,1,0.,24.0,0.,24.0,0.,24.0,1.,24.0
1979-03-01 15:49:57.360 ,6,1,0.,24.0,0.,24.0,0.,24.0,0.,24.0
1979-03-01 15:50:21.360 ,5,1,0.,24.0,0.,24.0,0.,24.0,0.,24.0
1979-03-01 15:50:45.360 ,4,1,0.,24.0,0.,24.0,0.,24.0,0.,24.0
1979-03-01 15:51:09.360 ,3,1,0.,24.0,0.,24.0,0.,24.0,0.,24.0
1979-03-01 15:51:33.360 ,2,1,0.,24.0,0.,24.0,0.,24.0,0.,24.0
1979-03-01 15:51:57.360 ,1,1,0.,24.0,0.,24.0,0.,24.0,0.,24.0
1979-03-01 15:52:21.360 ,0,1,1.,24.0,0.,24.0,0.,24.0,0.,24.0
1979-03-01 15:52:45.360 ,0,1,0.,24.0,0.,24.0,0.,24.0,0.,24.0
1979-03-01 15:53:09.360 ,1,1,0.,24.0,0.,24.0,0.,24.0,0.,24.0
1979-03-01 15:53:33.360 ,2,1,0.,24.0,0.,24.0,0.,24.0,0.,24.0
1979-03-01 15:53:57.360 ,3,1,0.,24.0,0.,24.0,0.,24.0,0.,24.0
1979-03-01 15:54:21.360 ,4,1,0.,24.0,0.,24.0,0.,24.0,0.,24.0
1979-03-01 15:54:45.360 ,5,1,0.,24.0,0.,24.0,0.,24.0,0.,24.0
1979-03-01 15:55:09.360 ,6,1,0.,24.0,0.,24.0,0.,24.0,0.,24.0
1979-03-01 15:55:33.360 ,7,1,0.,24.0,0.,24.0,0.,24.0,0.,24.0
1979-03-01 15:55:57.360 ,7,1,1.,24.0,0.,24.0,0.,24.0,0.,24.0
1979-03-01 15:56:21.360 ,6,1,0.,24.0,0.,24.0,0.,24.0,0.,24.0
1979-03-01 15:56:45.360 ,5,1,0.,24.0,0.,24.0,0.,24.0,0.,24.0
1979-03-01 15:57:09.360 ,4,1,0.,24.0,0.,24.0,0.,24.0,0.,24.0
1979-03-01 15:57:33.360 ,3,1,0.,24.0,0.,24.0,0.,24.0,0.,24.0
1979-03-01 15:57:57.360 ,2,1,0.,24.0,0.,24.0,0.,24.0,0.,24.0
1979-03-01 15:58:21.360 ,1,1,2.,24.0,0.,24.0,0.,24.0,0.,24.0
1979-03-01 15:58:45.360 ,0,1,0.,24.0,0.,24.0,0.,24.0,0.,24.0
1979-03-01 15:59:09.360 ,0,1,0.,24.0,0.,24.0,0.,24.0,0.,24.0
1979-03-01 15:59:33.360 ,1,1,0.,24.0,0.,24.0,0.,24.0,0.,24.0
1979-03-01 15:59:57.360 ,2,1,0.,24.0,0.,24.0,0.,24.0,0.,24.0
1979-03-01 16:00:21.360 ,3,1,0.,24.0,0.,24.0,0.,24.0,0.,24.0
1979-03-01 16:00:45.360 ,4,1,0.,24.0,0.,24.0,0.,24.0,0.,24.0
1979-03-01 16:01:09.360 ,5,1,0.,24.0,0.,24.0,0.,24.0,0.,24.0
1979-03-01 16:01:33.360 ,6,1,0.,24.0,0.,24.0,0.,24.0,0.,24.0
1979-03-01 16:01:57.360 ,7,1,0.,24.0,0.,24.0,0.,24.0,0.,24.0
1979-03-01 16:02:21.360 ,7,1,0.,24.0,0.,24.0,0.,24.0,0.,24.0
1979-03-01 16:02:45.360 ,6,1,0.,24.0,0.,24.0,0.,24.0,1.,24.0
1979-03-01 16:03:09.360 ,5,1,0.,24.0,0.,24.0,0.,24.0,0.,24.0
1979-03-01 16:03:33.360 ,4,1,0.,24.0,0.,24.0,0.,24.0,0.,24.0
1979-03-01 16:03:57.360 ,3,1,0.,24.0,0.,24.0,0.,24.0,0.,24.0
1979-03-01 16:04:21.360 ,2,1,0.,24.0,0.,24.0,0.,24.0,0.,24.0
1979-03-01 16:04:45.360 ,1,1,0.,24.0,0.,24.0,0.,24.0,0.,24.0
1979-03-01 16:05:09.360 ,0,1,0.,24.0,0.,24.0,0.,24.0,0.,24.0
1979-03-01 16:05:33.360 ,0,1,0.,24.0,0.,24.0,0.,24.0,0.,24.0
1979-03-01 16:05:57.360 ,1,1,0.,24.0,0.,24.0,0.,24.0,0.,24.0
1979-03-01 16:06:21.360 ,2,1,0.,24.0,0.,24.0,0.,24.0,0.,24.0
1979-03-01 16:06:45.360 ,3,1,0.,24.0,0.,24.0,0.,24.0,0.,24.0
1979-03-01 16:07:09.360 ,4,1,0.,24.0,0.,24.0,0.,24.0,0.,24.0
1979-03-01 16:07:33.360 ,5,1,0.,24.0,0.,24.0,0.,24.0,0.,24.0
1979-03-01 16:07:57.360 ,6,1,0.,24.0,0.,24.0,0.,24.0,0.,24.0
1979-03-01 16:08:21.360 ,7,1,0.,24.0,0.,24.0,0.,24.0,0.,24.0
1979-03-01 16:08:45.360 ,7,1,0.,24.0,0.,24.0,0.,24.0,0.,24.0
1979-03-01 16:09:09.360 ,6,1,0.,24.0,0.,24.0,0.,24.0,0.,24.0
1979-03-01 16:09:33.360 ,5,1,0.,24.0,0.,24.0,0.,24.0,0.,24.0
1979-03-01 16:09:57.360 ,4,1,0.,24.0,0.,24.0,0.,24.0,0.,24.0
1979-03-01 16:10:21.360 ,3,1,0.,24.0,0.,24.0,0.,24.0,0.,24.0
1979-03-01 16:10:45.360 ,2,1,0.,24.0,0.,24.0,0.,24.0,0.,24.0
1979-03-01 16:11:09.360 ,1,1,0.,24.0,0.,24.0,0.,24.0,0.,24.0
1979-03-01 16:11:33.360 ,0,1,0.,24.0,0.,24.0,0.,24.0,0.,24.0
1979-03-01 16:11:57.360 ,0,1,0.,24.0,0.,24.0,0.,24.0,0.,24.0
1979-03-01 16:12:21.360 ,1,1,0.,24.0,0.,24.0,0.,24.0,0.,24.0
1979-03-01 16:12:45.360 ,2,1,0.,24.0,0.,24.0,0.,24.0,0.,24.0
1979-03-01 16:13:09.360 ,3,1,0.,24.0,0.,24.0,0.,24.0,0.,24.0
1979-03-01 16:13:33.360 ,4,1,0.,24.0,0.,24.0,0.,24.0,0.,24.0
1979-03-01 16:13:57.360 ,5,1,0.,24.0,0.,24.0,0.,24.0,0.,24.0
1979-03-01 16:14:21.360 ,6,1,0.,24.0,0.,24.0,0.,24.0,0.,24.0
1979-03-01 16:14:45.360 ,0,0,0.,24.0,0.,24.0,0.,24.0,0.,24.0
1979-03-01 16:15:12.960 ,0,0,0.,24.0,0.,24.0,0.,24.0,0.,24.0
1979-03-01 16:15:33.360 ,6,1,0.,24.0,0.,24.0,0.,24.0,0.,24.0
1979-03-01 16:15:57.360 ,5,1,0.,24.0,0.,24.0,0.,24.0,0.,24.0
1979-03-01 16:16:21.360 ,4,1,0.,24.0,0.,24.0,0.,24.0,0.,24.0
1979-03-01 16:16:45.360 ,3,1,0.,24.0,0.,24.0,0.,24.0,0.,24.0
1979-03-01 16:17:09.360 ,2,1,0.,24.0,0.,24.0,0.,24.0,1.,24.0
1979-03-01 16:17:33.360 ,1,1,0.,24.0,0.,24.0,0.,24.0,0.,24.0
1979-03-01 16:17:57.360 ,0,1,0.,24.0,0.,24.0,0.,24.0,0.,24.0
1979-03-01 16:18:21.360 ,0,1,0.,24.0,0.,24.0,0.,24.0,0.,24.0
1979-03-01 16:18:45.360 ,1,1,0.,24.0,0.,24.0,0.,24.0,0.,24.0
1979-03-01 16:19:09.360 ,2,1,0.,24.0,0.,24.0,0.,24.0,0.,24.0
1979-03-01 16:19:33.360 ,3,1,1.,24.0,0.,24.0,0.,24.0,0.,24.0
1979-03-01 16:19:57.360 ,4,1,0.,24.0,0.,24.0,0.,24.0,0.,24.0
1979-03-01 16:20:21.360 ,5,1,0.,24.0,0.,24.0,0.,24.0,0.,24.0
1979-03-01 16:20:45.360 ,6,1,0.,24.0,0.,24.0,0.,24.0,0.,24.0
1979-03-01 16:21:09.360 ,7,1,0.,24.0,0.,24.0,0.,24.0,0.,24.0
1979-03-01 16:21:33.360 ,7,1,0.,24.0,0.,24.0,0.,24.0,0.,24.0
1979-03-01 16:21:57.360 ,6,1,0.,24.0,0.,24.0,0.,24.0,0.,24.0
1979-03-01 16:22:21.360 ,5,1,0.,24.0,0.,24.0,0.,24.0,0.,24.0
1979-03-01 16:22:45.360 ,4,1,0.,24.0,0.,24.0,0.,24.0,0.,24.0
1979-03-01 16:23:09.360 ,3,1,0.,24.0,0.,24.0,0.,24.0,0.,24.0
1979-03-01 16:23:33.360 ,2,1,0.,24.0,0.,24.0,0.,24.0,0.,24.0
1979-03-01 16:23:57.360 ,1,1,0.,24.0,0.,24.0,0.,24.0,0.,24.0
1979-03-01 16:24:21.360 ,0,1,0.,24.0,0.,24.0,0.,24.0,0.,24.0
1979-03-01 16:24:45.360 ,0,1,0.,24.0,0.,24.0,0.,24.0,0.,24.0
1979-03-01 16:25:09.360 ,1,1,0.,24.0,0.,24.0,0.,24.0,0.,24.0
1979-03-01 16:25:33.360 ,2,1,0.,24.0,0.,24.0,0.,24.0,0.,24.0
1979-03-01 16:25:57.360 ,3,1,0.,24.0,0.,24.0,0.,24.0,0.,24.0
1979-03-01 16:26:21.360 ,4,1,0.,24.0,0.,24.0,0.,24.0,0.,24.0
1979-03-01 16:26:45.360 ,5,1,0.,24.0,0.,24.0,0.,24.0,0.,24.0
1979-03-01 16:27:09.360 ,6,1,0.,24.0,0.,24.0,0.,24.0,0.,24.0
1979-03-01 16:27:33.360 ,7,1,0.,24.0,0.,24.0,0.,24.0,0.,24.0
1979-03-01 16:27:57.360 ,7,1,0.,24.0,0.,24.0,0.,24.0,0.,24.0
1979-03-01 16:28:21.360 ,6,1,0.,24.0,0.,24.0,0.,24.0,0.,24.0
1979-03-01 16:28:45.360 ,5,1,0.,24.0,0.,24.0,0.,24.0,0.,24.0
1979-03-01 16:29:09.360 ,4,1,0.,24.0,0.,24.0,0.,24.0,0.,24.0
1979-03-01 16:29:33.360 ,3,1,0.,24.0,0.,24.0,0.,24.0,0.,24.0
1979-03-01 16:29:57.360 ,2,1,0.,24.0,0.,24.0,0.,24.0,0.,24.0
1979-03-01 16:30:21.360 ,1,1,0.,24.0,0.,24.0,0.,24.0,0.,24.0
1979-03-01 16:30:45.360 ,0,1,0.,24.0,0.,24.0,0.,24.0,0.,24.0
1979-03-01 16:31:09.360 ,0,1,0.,24.0,0.,24.0,0.,24.0,0.,24.0
1979-03-01 16:31:33.360 ,1,1,0.,24.0,0.,24.0,0.,24.0,0.,24.0
1979-03-01 16:31:57.360 ,2,1,0.,24.0,0.,24.0,0.,24.0,0.,24.0
1979-03-01 16:32:21.360 ,3,1,0.,24.0,0.,24.0,0.,24.0,0.,24.0
1979-03-01 16:32:45.360 ,4,1,0.,24.0,0.,24.0,0.,24.0,0.,24.0
1979-03-01 16:33:09.360 ,5,1,0.,24.0,0.,24.0,0.,24.0,0.,24.0
1979-03-01 16:33:33.360 ,6,1,0.,24.0,0.,24.0,0.,24.0,0.,24.0
1979-03-01 16:33:57.360 ,7,1,0.,24.0,0.,24.0,0.,24.0,0.,24.0
1979-03-01 16:34:21.360 ,7,1,0.,24.0,0.,24.0,0.,24.0,0.,24.0
1979-03-01 16:34:45.360 ,6,1,0.,24.0,0.,24.0,0.,24.0,0.,24.0
1979-03-01 16:35:09.360 ,5,1,0.,24.0,0.,24.0,0.,24.0,0.,24.0
1979-03-01 16:35:33.360 ,0,0,0.,24.0,0.,24.0,0.,24.0,0.,24.0
1979-03-01 16:35:57.360 ,3,1,0.,24.0,0.,24.0,0.,24.0,0.,24.0
1979-03-01 16:36:21.360 ,2,1,1.,24.0,0.,24.0,0.,24.0,0.,24.0
1979-03-01 16:36:45.360 ,1,1,0.,24.0,0.,24.0,0.,24.0,0.,24.0
1979-03-01 16:37:09.360 ,0,1,0.,24.0,0.,24.0,0.,24.0,0.,24.0
1979-03-01 16:37:33.360 ,0,1,0.,24.0,0.,24.0,0.,24.0,0.,24.0
1979-03-01 16:37:57.360 ,1,1,0.,24.0,0.,24.0,0.,24.0,0.,24.0
1979-03-01 16:38:21.360 ,2,1,0.,24.0,0.,24.0,0.,24.0,0.,24.0
1979-03-01 16:38:45.360 ,3,1,0.,24.0,0.,24.0,0.,24.0,0.,24.0
1979-03-01 16:39:09.360 ,4,1,1.,24.0,0.,24.0,0.,24.0,0.,24.0
1979-03-01 16:39:33.360 ,5,1,0.,24.0,0.,24.0,0.,24.0,0.,24.0
1979-03-01 16:39:57.360 ,6,1,1.,24.0,0.,24.0,0.,24.0,0.,24.0
1979-03-01 16:40:21.360 ,7,1,0.,24.0,0.,24.0,0.,24.0,0.,24.0
1979-03-01 16:40:45.360 ,7,1,0.,24.0,0.,24.0,0.,24.0,0.,24.0
1979-03-01 16:41:09.360 ,6,1,0.,24.0,0.,24.0,0.,24.0,0.,24.0
1979-03-01 16:41:33.360 ,5,1,0.,24.0,0.,24.0,0.,24.0,0.,24.0
1979-03-01 16:41:57.360 ,4,1,0.,24.0,0.,24.0,0.,24.0,0.,24.0
1979-03-01 16:42:21.360 ,3,1,0.,24.0,0.,24.0,0.,24.0,0.,24.0
1979-03-01 16:42:45.360 ,2,1,0.,24.0,0.,24.0,0.,24.0,0.,24.0
1979-03-01 16:43:09.360 ,1,1,0.,24.0,0.,24.0,0.,24.0,0.,24.0
1979-03-01 16:43:33.360 ,0,1,0.,24.0,0.,24.0,0.,24.0,0.,24.0
1979-03-01 16:43:57.360 ,0,1,0.,24.0,0.,24.0,0.,24.0,0.,24.0
1979-03-01 16:44:21.360 ,1,1,0.,24.0,0.,24.0,0.,24.0,0.,24.0
1979-03-01 16:44:45.360 ,2,1,0.,24.0,0.,24.0,0.,24.0,0.,24.0
1979-03-01 16:45:09.360 ,3,1,0.,24.0,0.,24.0,0.,24.0,0.,24.0
1979-03-01 16:45:33.360 ,4,1,0.,24.0,0.,24.0,0.,24.0,0.,24.0
1979-03-01 16:45:57.360 ,5,1,0.,24.0,0.,24.0,0.,24.0,0.,24.0
1979-03-01 16:46:21.360 ,6,1,0.,24.0,0.,24.0,0.,24.0,0.,24.0
1979-03-01 16:46:45.360 ,7,1,0.,24.0,0.,24.0,0.,24.0,0.,24.0
1979-03-01 16:47:09.360 ,7,1,0.,24.0,0.,24.0,0.,24.0,0.,24.0
1979-03-01 16:47:33.360 ,6,1,0.,24.0,0.,24.0,0.,24.0,0.,24.0
1979-03-01 16:47:57.360 ,5,1,0.,24.0,0.,24.0,0.,24.0,0.,24.0
1979-03-01 16:48:21.360 ,4,1,0.,24.0,0.,24.0,0.,24.0,0.,24.0
1979-03-01 16:48:45.360 ,3,1,0.,24.0,0.,24.0,0.,24.0,0.,24.0
1979-03-01 16:49:09.360 ,2,1,0.,24.0,0.,24.0,0.,24.0,0.,24.0
1979-03-01 16:49:33.360 ,1,1,0.,24.0,0.,24.0,0.,24.0,0.,24.0
1979-03-01 16:49:57.360 ,0,1,0.,24.0,0.,24.0,0.,24.0,0.,24.0
1979-03-01 16:50:21.360 ,0,1,0.,24.0,0.,24.0,0.,24.0,0.,24.0
1979-03-01 16:50:45.360 ,1,1,0.,24.0,0.,24.0,0.,24.0,0.,24.0
1979-03-01 16:51:09.360 ,2,1,0.,24.0,0.,24.0,0.,24.0,0.,24.0
1979-03-01 16:51:33.360 ,3,1,0.,24.0,0.,24.0,0.,24.0,0.,24.0
1979-03-01 16:51:57.360 ,4,1,0.,24.0,0.,24.0,0.,24.0,0.,24.0
1979-03-01 16:52:21.360 ,5,1,1.,24.0,0.,24.0,0.,24.0,0.,24.0
1979-03-01 16:52:45.360 ,6,1,0.,24.0,0.,24.0,0.,24.0,0.,24.0
1979-03-01 16:53:09.360 ,7,1,0.,24.0,0.,24.0,0.,24.0,0.,24.0
1979-03-01 16:53:33.360 ,7,1,0.,24.0,0.,24.0,0.,24.0,0.,24.0
1979-03-01 16:53:57.360 ,6,1,0.,24.0,0.,24.0,0.,24.0,0.,24.0
1979-03-01 16:54:21.360 ,5,1,0.,24.0,0.,24.0,0.,24.0,0.,24.0
1979-03-01 16:54:45.360 ,4,1,0.,24.0,0.,24.0,0.,24.0,0.,24.0
1979-03-01 16:55:09.360 ,3,1,0.,24.0,0.,24.0,0.,24.0,0.,24.0
1979-03-01 16:55:33.360 ,2,1,0.,24.0,0.,24.0,0.,24.0,0.,24.0
1979-03-01 16:55:57.360 ,1,1,0.,24.0,0.,24.0,0.,24.0,0.,24.0
1979-03-01 16:56:21.360 ,0,1,0.,24.0,0.,24.0,0.,24.0,0.,24.0
1979-03-01 16:56:45.360 ,0,0,0.,24.0,0.,24.0,0.,24.0,0.,24.0
1979-03-01 16:57:09.360 ,0,0,,0,,0,,0,,0
1979-03-01 16:57:38.760 ,0,0,,0,,0,,0,,0
1979-03-01 16:57:57.360 ,0,0,,0,,0,,0,,0
1979-03-01 17:02:09.960 ,0,0,,0,,0,,0,,0
1979-03-01 17:02:21.360 ,1,1,0.,24.0,0.,24.0,0.,24.0,0.,24.0
1979-03-01 17:02:45.360 ,0,0,0.,24.0,0.,24.0,0.,24.0,0.,24.0
1979-03-01 17:03:13.560 ,0,0,,0,,0,,0,,0
1979-03-01 17:03:33.360 ,0,0,,0,,0,,0,,0
1979-03-01 17:04:19.560 ,0,0,,0,,0,,0,,0
1979-03-01 17:04:21.360 ,0,0,0.,24.0,0.,24.0,0.,24.0,0.,24.0
1979-03-01 17:04:45.360 ,4,1,0.,24.0,0.,24.0,0.,24.0,0.,24.0
1979-03-01 17:05:09.360 ,0,0,0.,24.0,0.,24.0,0.,24.0,0.,24.0
1979-03-01 17:05:34.560 ,0,0,0.,24.0,0.,24.0,0.,24.0,0.,24.0
1979-03-01 17:05:57.360 ,0,0,0.,24.0,0.,24.0,0.,24.0,0.,24.0
1979-03-01 17:06:21.360 ,7,1,0.,24.0,0.,24.0,0.,24.0,0.,24.0
1979-03-01 17:06:45.360 ,6,1,0.,24.0,0.,24.0,0.,24.0,0.,24.0
1979-03-01 17:07:09.360 ,5,1,0.,24.0,0.,24.0,0.,24.0,0.,24.0
1979-03-01 17:07:33.360 ,0,0,0.,24.0,0.,24.0,0.,24.0,0.,24.0
1979-03-01 17:07:57.360 ,3,1,0.,24.0,0.,24.0,0.,24.0,0.,24.0
1979-03-01 17:08:21.360 ,0,0,0.,24.0,0.,24.0,0.,24.0,0.,24.0
1979-03-01 17:08:45.960 ,0,0,0.,24.0,0.,24.0,0.,24.0,0.,24.0
1979-03-01 17:09:09.360 ,0,0,0.,24.0,0.,24.0,0.,24.0,0.,24.0
1979-03-01 17:09:33.360 ,0,0,0.,24.0,0.,24.0,0.,24.0,0.,24.0
1979-03-01 17:09:57.360 ,1,1,0.,24.0,0.,24.0,0.,24.0,0.,24.0
1979-03-01 17:10:21.360 ,2,1,0.,24.0,0.,24.0,0.,24.0,0.,24.0
1979-03-01 17:10:45.360 ,3,1,,0,,0,,0,,0
1979-03-01 17:11:09.360 ,0,0,0.,24.0,0.,24.0,0.,24.0,0.,24.0
1979-03-01 17:11:33.360 ,0,0,0.,24.0,0.,24.0,0.,24.0,0.,24.0
1979-03-01 17:11:57.360 ,6,1,0.,24.0,0.,24.0,0.,24.0,0.,24.0
1979-03-01 17:12:21.360 ,7,1,0.,24.0,0.,24.0,0.,24.0,0.,24.0
1979-03-01 17:12:45.360 ,7,1,0.,24.0,0.,24.0,0.,24.0,0.,24.0
1979-03-01 17:13:09.360 ,6,1,0.,24.0,0.,24.0,0.,24.0,0.,24.0
1979-03-01 17:13:33.360 ,5,1,0.,24.0,0.,24.0,0.,24.0,0.,24.0
1979-03-01 17:13:57.360 ,4,1,0.,24.0,0.,24.0,0.,24.0,0.,24.0
1979-03-01 17:14:21.360 ,3,1,0.,24.0,0.,24.0,0.,24.0,0.,24.0
1979-03-01 17:14:45.360 ,2,1,0.,24.0,0.,24.0,0.,24.0,0.,24.0
1979-03-01 17:15:09.360 ,1,1,0.,24.0,0.,24.0,0.,24.0,0.,24.0
1979-03-01 17:15:33.360 ,0,1,0.,24.0,0.,24.0,0.,24.0,0.,24.0
1979-03-01 17:15:57.360 ,0,1,0.,24.0,0.,24.0,0.,24.0,0.,24.0
1979-03-01 17:16:21.360 ,1,1,0.,24.0,0.,24.0,0.,24.0,0.,24.0
1979-03-01 17:16:45.360 ,2,1,0.,24.0,0.,24.0,0.,24.0,0.,24.0
1979-03-01 17:17:09.360 ,3,1,0.,24.0,0.,24.0,0.,24.0,0.,24.0
1979-03-01 17:17:33.360 ,4,1,0.,24.0,0.,24.0,0.,24.0,0.,24.0
1979-03-01 17:17:57.360 ,5,1,0.,24.0,0.,24.0,0.,24.0,0.,24.0
1979-03-01 17:18:21.360 ,6,1,0.,24.0,0.,24.0,0.,24.0,0.,24.0
1979-03-01 17:18:45.360 ,7,1,0.,24.0,0.,24.0,0.,24.0,0.,24.0
1979-03-01 17:19:09.360 ,7,1,0.,24.0,0.,24.0,0.,24.0,0.,24.0
1979-03-01 17:19:33.360 ,6,1,0.,24.0,0.,24.0,0.,24.0,0.,24.0
1979-03-01 17:19:57.360 ,5,1,0.,24.0,0.,24.0,0.,24.0,0.,24.0
1979-03-01 17:20:21.360 ,4,1,0.,24.0,0.,24.0,0.,24.0,0.,24.0
1979-03-01 17:20:45.360 ,3,1,0.,24.0,0.,24.0,0.,24.0,0.,24.0
1979-03-01 17:21:09.360 ,2,1,0.,24.0,0.,24.0,0.,24.0,0.,24.0
1979-03-01 17:21:33.360 ,1,1,0.,24.0,0.,24.0,0.,24.0,0.,24.0
1979-03-01 17:21:57.360 ,0,1,0.,24.0,0.,24.0,0.,24.0,0.,24.0
1979-03-01 17:22:21.360 ,0,1,0.,24.0,0.,24.0,0.,24.0,0.,24.0
1979-03-01 17:22:45.360 ,1,1,0.,24.0,0.,24.0,0.,24.0,0.,24.0
1979-03-01 17:23:09.360 ,2,1,0.,24.0,0.,24.0,0.,24.0,0.,24.0
1979-03-01 17:23:33.360 ,3,1,0.,24.0,0.,24.0,0.,24.0,0.,24.0
1979-03-01 17:23:57.360 ,4,1,0.,24.0,0.,24.0,0.,24.0,0.,24.0
1979-03-01 17:24:21.360 ,5,1,0.,24.0,0.,24.0,0.,24.0,0.,24.0
1979-03-01 17:24:45.360 ,6,1,0.,24.0,0.,24.0,0.,24.0,0.,24.0
1979-03-01 17:25:09.360 ,7,1,0.,24.0,0.,24.0,0.,24.0,0.,24.0
1979-03-01 17:25:33.360 ,7,1,0.,24.0,0.,24.0,0.,24.0,0.,24.0
1979-03-01 17:25:57.360 ,6,1,0.,24.0,0.,24.0,0.,24.0,0.,24.0
1979-03-01 17:26:21.360 ,5,1,0.,24.0,0.,24.0,0.,24.0,0.,24.0
1979-03-01 17:26:45.360 ,4,1,0.,24.0,0.,24.0,0.,24.0,0.,24.0
1979-03-01 17:27:09.360 ,3,1,0.,24.0,0.,24.0,0.,24.0,0.,24.0
1979-03-01 17:27:33.360 ,2,1,0.,24.0,0.,24.0,0.,24.0,0.,24.0
1979-03-01 17:27:57.360 ,1,1,0.,24.0,0.,24.0,0.,24.0,0.,24.0
1979-03-01 17:28:21.360 ,0,1,0.,24.0,0.,24.0,0.,24.0,0.,24.0
1979-03-01 17:28:45.360 ,0,1,0.,24.0,0.,24.0,0.,24.0,0.,24.0
1979-03-01 17:29:09.360 ,1,1,0.,24.0,0.,24.0,0.,24.0,0.,24.0
1979-03-01 17:29:33.360 ,2,1,0.,24.0,0.,24.0,0.,24.0,0.,24.0
1979-03-01 17:29:57.360 ,3,1,0.,24.0,0.,24.0,0.,24.0,0.,24.0
1979-03-01 17:30:21.360 ,4,1,0.,24.0,0.,24.0,0.,24.0,0.,24.0
1979-03-01 17:30:45.360 ,5,1,0.,24.0,0.,24.0,0.,24.0,0.,24.0
1979-03-01 17:31:09.360 ,0,0,0.,24.0,0.,24.0,0.,24.0,0.,24.0
1979-03-01 17:31:33.360 ,7,1,0.,24.0,0.,24.0,0.,24.0,0.,24.0
1979-03-01 17:31:57.360 ,7,1,0.,24.0,0.,24.0,0.,24.0,0.,24.0
1979-03-01 17:32:21.360 ,6,1,0.,24.0,0.,24.0,0.,24.0,0.,24.0
1979-03-01 17:32:45.360 ,5,1,0.,24.0,0.,24.0,0.,24.0,0.,24.0
1979-03-01 17:33:09.360 ,4,1,0.,24.0,0.,24.0,0.,24.0,0.,24.0
1979-03-01 17:33:33.360 ,3,1,0.,24.0,0.,24.0,0.,24.0,0.,24.0
1979-03-01 17:33:57.360 ,2,1,0.,24.0,0.,24.0,0.,24.0,0.,24.0
1979-03-01 17:34:21.360 ,1,1,0.,24.0,0.,24.0,0.,24.0,0.,24.0
1979-03-01 17:34:45.360 ,0,1,0.,24.0,0.,24.0,0.,24.0,0.,24.0
1979-03-01 17:35:09.360 ,0,1,0.,24.0,0.,24.0,0.,24.0,0.,24.0
1979-03-01 17:35:33.360 ,1,1,0.,24.0,0.,24.0,0.,24.0,0.,24.0
1979-03-01 17:35:57.360 ,2,1,0.,24.0,0.,24.0,0.,24.0,0.,24.0
1979-03-01 17:36:21.360 ,3,1,0.,24.0,0.,24.0,0.,24.0,0.,24.0
1979-03-01 17:36:45.360 ,4,1,0.,24.0,0.,24.0,0.,24.0,0.,24.0
1979-03-01 17:37:09.360 ,5,1,0.,24.0,0.,24.0,0.,24.0,0.,24.0
1979-03-01 17:37:33.360 ,6,1,0.,24.0,0.,24.0,0.,24.0,0.,24.0
1979-03-01 17:37:57.360 ,7,1,0.,24.0,0.,24.0,0.,24.0,0.,24.0
1979-03-01 17:38:21.360 ,7,1,0.,24.0,0.,24.0,0.,24.0,0.,24.0
1979-03-01 17:38:45.360 ,6,1,0.,24.0,0.,24.0,0.,24.0,0.,24.0